Starlink 31213

operational
NORAD ID: 58860 Int'l Des: 2024-019 Owner: SPXS Country: US Constellation: starlink
LEOCIRCULAR

Über Starlink 31213

Beschreibung wird geladen...

Live-Position

3D-Globus wird geladen...

Nächste Überflüge

Höhenverlauf

Altitude vs Time

uPlot chart will show altitude changes over time

Zweizeiliger Elementsatz

1 58860U 24019H 25354.24943533 -.00000898 00000-0 -23117-4 0 9990
2 58860 43.0005 337.5111 0001442 285.0552 75.0140 15.27562742106937
Epoch: 20. Dez. 2025 • Age: 8 hours

Aktueller Status

Höhe 495.0 km
Geschwindigkeit 7.62 km/s
Subsatellitenpunkt -42.04°S, 30.05°W
Startdatum 29. Jan. 2024
Alter 1.8 years
Typ internet

Technische Details

Klassifizierung Payload
Masse 730.00 kg
Trockenmasse 700.00 kg
Gesamtmasse 730.00 kg
Länge 0.30 m
Durchmesser 4.10 m
Spannweite 29.00 m
Form Box + pan
Hersteller SPXS
Bus-Typ Starlink V2M
Phasenstatus In Orbit
Besitzer/Staat SPXS/US

Große Konstellationen

Loading constellations...